Regional Weather Roundup
Issued by NWS

Home | Current Version | Previous Version | Text Only | Print | Product List | Glossary On
Versions: 1 2 3 4 5 6 7 8 9 10 11 12 13 14 15 16 17 18 19 20 21 22 23 24 25 26 27 28 29 30 31 32 33 34 35 36 37 38 39 40 41 42 43 44 45 46 47 48 49 50
000
ASUS45 KPSR 241010
RWRAZ

ARIZONA REGIONAL HOURLY WEATHER ROUNDUP
NATIONAL WEATHER SERVICE PHOENIX AZ
300 AM MST THU APR 24 2014

NOTE: FAIR INDICATES FEW OR NO CLOUDS BELOW 12,000 FEET WITH NO
SIGNIFICANT WEATHER AND/OR OBSTRUCTIONS TO VISIBILITY.

AZZ001>003-036-241100-
NORTHWEST ARIZONA

CITY           SKY/WX    TMP DP  RH WIND       PRES   REMARKS
BULLHEAD CITY  FAIR      64  12  13 E3        29.90S
KINGMAN        FAIR      46   7  20 E3        29.99F
$$

AZZ004>008-015-016-018-241100-
NORTH CENTRAL ARIZONA

CITY           SKY/WX    TMP DP  RH WIND       PRES   REMARKS
GRAND CANYON   FAIR      24   8  50 CALM      30.11S
WILLIAMS       FAIR      28   9  43 SE8       30.18R WCI  20
PRESCOTT       FAIR      41  13  31 SW5       30.06R
FLAGSTAFF      FAIR      27  10  49 CALM      30.13R
PAYSON         FAIR      45  10  24 CALM      30.07S
PAGE           FAIR      49  11  21 SE3       30.05R
$$

AZZ009>014-017-241100-
NORTHEAST ARIZONA

CITY           SKY/WX    TMP DP  RH WIND       PRES   REMARKS
WINSLOW        FAIR      43  13  29 W7        30.07R
SAINT JOHNS    FAIR      39  11  31 S3        30.06R
WINDOW ROCK    FAIR      26   9  48 CALM      30.11R
SHOW LOW       FAIR      32   9  37 S5        30.12R WCI  27
$$

AZZ023-241100-
GREATER PHOENIX AREA

CITY           SKY/WX    TMP DP  RH WIND       PRES   REMARKS
PHOENIX        FAIR      68  18  14 CALM      29.87R
BUCKEYE          N/A     54  10  17 CALM      29.88S
LUKE AFB       NOT AVBL
DEER VALLEY    FAIR      60  15  17 NE3       29.88S
SCOTTSDALE     FAIR      63  23  21 CALM      29.90S
MESA-GATEWAY   FAIR      55  21  26 E5        29.91S
$$

AZZ027-028-241100-
SOUTHWEST MARICOPA COUNTY AND PINAL COUNTY

CITY           SKY/WX    TMP DP  RH WIND       PRES   REMARKS
CASA GRANDE    FAIR      55  16  21 CALM      29.91R
$$

AZZ503-504-507>509-241100-
SOUTHEAST ARIZONA

CITY           SKY/WX    TMP DP  RH WIND       PRES   REMARKS
TUCSON         FAIR      56  14  19 SE9       29.98R
DAVIS-MONTHAN  FAIR      56  15  19 S7        29.96S
NOGALES        FAIR      49  19  30 CALM      30.01S
SIERRA VISTA   PTCLDY    55  10  16 SW7       30.04S
DOUGLAS        FAIR      49  14  24 CALM      30.03R
SAFFORD        FAIR      49   6  17 NE6       29.95R
$$

AZZ020-021-025-026-031-241100-
SOUTHWEST ARIZONA

CITY           SKY/WX    TMP DP  RH WIND       PRES   REMARKS
YUMA           FAIR      66  32  28 CALM      29.85S
$$

CAZ031-033-041-043-047-048-061-241100-
SOUTHERN CALIFORNIA

CITY           SKY/WX    TMP DP  RH WIND       PRES   REMARKS
DOWNTOWN L.A.  FAIR      57  50  77 CALM      29.93S
L.A. AIRPORT   FAIR      57  49  74 CALM      29.94S
SAN DIEGO      FAIR      61  51  70 CALM      29.96S
BURBANK        FAIR      55  38  52 CALM      29.93S
ONTARIO        FAIR      57  41  55 CALM      29.95S
RIVERSIDE      FAIR      55  43  63 CALM      29.96R
PALM SPRINGS   FAIR      69  40  34 NW9       29.88S
EL CENTRO NAS  FAIR      62  39  42 W7        29.84S
IMPERIAL       FAIR      62  41  46 W5        29.83F
BLYTHE         FAIR      62  11  13 N7        29.86F
NEEDLES        FAIR      65  11  12 S7        29.90R
$$

NVZ020-UTZ003-241100-
SOUTHERN NEVADA-UTAH

CITY           SKY/WX    TMP DP  RH WIND       PRES   REMARKS
LAS VEGAS      FAIR      61  14  16 S8        29.91R
SALT LAKE CITY FAIR      39  22  50 SE10      30.06S WCI  32
$$

NMZ009-TXZ055-241100-
NEW MEXICO-WEST TEXAS

CITY           SKY/WX    TMP DP  RH WIND       PRES   REMARKS
ALBUQUERQUE    CLEAR     49  12  22 NW6       30.05R
EL PASO        FAIR      68   9  10 NW21G29   29.92S
$$


........................KEY........................
SKY/WX - SKY CONDITION/WEATHER
TMP    - TEMPERATURE IN FAHRENHEIT
DP     - DEW POINT IN FAHRENHEIT
RH     - RELATIVE HUMIDITY IN PERCENT
WIND   - DIRECTION AND SPEED IN MILES PER HOUR (MPH)
VRB    - VARIABLE WIND DIRECTION
PRES   - MEAN SEA LEVEL PRESSURE IN INCHES OF MERCURY
         F - FALLING PRESSURE   R - RISING PRESSURE
         S - STEADY PRESSURE
VSB    - VISIBILITY IN MILES
HX     - HEAT INDEX IN FAHRENHEIT
WCI    - WIND CHILL INDEX IN FAHRENHEIT
TC     - TEMPERATURE IN CELSIUS WHICH IS ALSO KNOWN AS
         TEMPERATURE IN CENTIGRADE
AFB    - AIR FORCE BASE
         LUKE AFB IS LUKE AIR FORCE BASE
         DAVIS-MONTHAN IS DAVIS-MONTHAN AIR FORCE BASE
NAS    - NAVAL AIR STATION
         EL CENTRO NAS IS EL CENTRO NAVAL AIR STATION
N/A    - NOT AVAILABLE



USA.gov is the U.S. government's official web portal to all federal, state and local government web resources and services.